SCP
0 0 0 0 0 0 0 0 0 0 0 0 0 0 0 0 0 0 0 0 0 0 0 0 0 0 0 0 0 0 0 0 0 0 0 0 0 0 0 0 0 0 0
-0 -0 -0 0 0 0 0 0 0 0 0 0 0 0 0 0 0 0 0 0 0 0 0 0 0 0 0 0 0 0 0 0 0 0 0 0 0 0 0 0 0 0 0
-0 -0 0 -0 0 0 0 0 0 0 0 0 0 0 0 0 0 0 0 0 0 0 0 0 0 0 0 0 0 0 0 0 0 0 0 0 0 0 0 0 0 0 0
0 0 -0 0 -0 0 0 0 0 0 0 0 0 0 0 0 0 0 0 0 0 0 0 0 0 0 0 0 0 0 0 0 0 0 0 0 0 0 0 0 0 0 0
-0 0 0 -0 -0 -0 0 0 0 0 0 0 0 0 0 0 0 0 0 0 0 0 0 0 0 0 0 0 0 0 0 0 0 0 0 0 0 0 0 0 0 0 0
-0 -0 -0 -0 -0 0 0 0 0 0 0 0 0 0 0 0 0 0 0 0 0 0 0 0 0 0 0 0 0 0 0 0 0 0 0 0 0 0 0 0 0 0 0
-0 -0 -0 -0 -0 -0 -0 0 0 0 0 0 0 0 0 0 0 0 0 0 0 0 0 0 0 0 0 0 0 0 0 0 0 0 0 0 0 0 0 0 0 0 0
-0 -0 -0 -0 -0 -0 -0 -0 0 0 0 0 0 0 0 0 0 0 0 0 0 0 0 0 0 0 0 0 0 0 0 0 0 0 0 0 0 0 0 0 0 0 0
-0 -0 -0 -0 -0 -0 -0 0 0 0 0 0 0 0 0 0 0 0 0 0 0 0 0 0 0 0 0 0 0 0 0 0 0 0 0 0 0 0 0 0 0 0 0
-0 -0 -0 -0 -0 -0 0 0 0 0 0 0 0 0 0 0 0 0 0 0 0 0 0 0 0 0 0 0 0 0 0 0 0 0 0 0 0 0 0 0 0 0 0
-0 -0 -0 -0 -0 -0 -0 0 0 0 0 0 0 0 0 0 0 0 0 0 0 0 0 0 0 0 0 0 0 0 0 0 0 0 0 0 0 0 0 0 0 0 0
-0 -0 -0 -0 -0 -0 -0 -0 0 0 0 0 0 0 0 0 0 0 0 0 0 0 0 0 0 0 0 0 0 0 0 0 0 0 0 0 0 0 0 0 0 0 0
-0 -0 -0 -0 -0 -0 -0 -0 0 0 0 0 0 0 0 0 0 0 0 0 0 0 0 0 0 0 0 0 0 0 0 0 0 0 0 0 0 0 0 0 0 0 0
-0 -0 -0 -0 -0 -0 -0 -0 -0 0 0 0 0 0 0 0 0 0 0 0 0 0 0 0 0 0 0 0 0 0 0 0 0 0 0 0 0 0 0 0 0 0 0
0 -0 -0 -0 -0 -0 -0 0 -0 0 0 0 0 0 0 0 0 0 0 0 0 0 0 0 0 0 0 0 0 0 0 0 0 0 0 0 0 0 0 0 0 0 0
0 -0 -0 -0 -0 -0 -0 -0 0 -0 0 0 0 0 0 0 0 0 0 0 0 0 0 0 0 0 0 0 0 0 0 0 0 0 0 0 0 0 0 0 0 0 0
0 0 -0 -0 -0 -0 -0 -0 0 0 -0 0 0 0 0 0 0 0 0 0 0 0 0 0 0 0 0 0 0 0 0 0 0 0 0 0 0 0 0 0 0 0 0
0 0 -0 -0 -0 -0 -0 -0 -0 0 -0 0 0 0 0 0 0 0 0 0 0 0 0 0 0 0 0 0 0 0 0 0 0 0 0 0 0 0 0 0 0 0 0
0 0 0 -0 -0 -0 -0 -0 -0 0 0 -0 0 0 0 0 0 0 0 0 0 0 0 0 0 0 0 0 0 0 0 0 0 0 0 0 0 0 0 0 0 0 0
0 0 0 0 0 -0 -0 -0 0 0 0 -0 0 0 0 0 0 0 0 0 0 0 0 0 0 0 0 0 0 0 0 0 0 0 0 0 0 0 0 0 0 0 0
0 0 0 0 0 -0 -0 -0 0 0 0 0 0 0 0 0 0 0 0 0 0 0 0 0 0 0 0 0 0 0 0 0 0 0 0 0 0 0 0 0 0 0 0
0 0 0 0 0 0 -0 -0 -0 -0 0 0 0 0 0 0 0 0 0 0 0 0 0 0 0 0 0 0 0 0 0 0 0 0 0 0 0 0 0 0 0 0 0
0 0 0 0 0 0 -0 -0 -0 -0 0 0 0 0 0 0 0 0 0 0 0 0 0 0 0 0 0 0 0 0 0 0 0 0 0 0 0 0 0 0 0 0 0
0 0 0 0 0 0 0 0 -0 0 0 0 0 0 0 0 0 0 0 0 0 0 0 0 0 0 0 0 0 0 0 0 0 0 0 0 0 0 0 0 0 0 0
0 0 0 0 0 0 0 0 0 0 0 0 0 0 0 0 0 0 0 0 0 0 0 0 0 0 0 0 0 0 0 0 0 0 0 0 0 0 0 0 0 0 0
0 0 0 0 0 0 0 0 0 0 0 0 0 0 0 0 0 0 0 0 0 0 0 0 0 0 0 0 0 0 0 0 0 0 0 0 0 0 0 0 0 0 0
Wind_Speed_500mb
86 74 66 57 46 40 38 55 67 72 78 81 84 98 103 100 86 87 81 74 62 58 51 47 46 43 39 36 32 31 30 27 22 19 17 18 19 21 22 26 29 30 30
84 84 70 60 55 46 36 41 57 70 74 77 80 90 103 100 94 79 73 61 55 53 53 50 48 43 39 35 32 29 25 23 18 13 11 13 16 20 25 30 32 30 31
87 86 77 62 56 50 47 41 46 60 73 79 80 86 90 95 88 84 66 62 55 56 52 49 45 41 39 34 30 27 23 19 14 9 9 12 16 18 21 26 28 31 35
78 85 83 66 58 52 46 45 41 50 61 71 73 78 83 88 85 71 59 63 51 49 52 48 42 38 35 31 28 26 22 17 12 8 8 11 16 19 26 32 33 35 42
80 77 81 76 58 54 49 42 39 40 51 58 66 69 78 80 75 72 70 60 59 61 50 48 43 39 36 32 28 24 20 18 15 7 7 10 13 19 27 35 41 45 45
77 76 75 74 68 53 51 42 37 36 39 53 60 66 70 71 70 65 62 61 60 53 51 49 42 40 32 28 24 23 23 20 15 11 9 10 12 19 26 34 43 48 36
72 73 74 72 69 59 47 46 36 31 26 39 49 60 69 64 55 57 59 57 57 54 51 47 42 37 34 29 25 23 22 21 19 13 9 11 11 17 27 33 38 31 30
70 68 72 74 67 66 46 42 41 28 28 28 41 46 50 54 52 48 53 58 56 52 48 42 39 36 33 28 25 22 19 20 19 14 12 8 12 16 23 33 31 25 26
71 70 68 71 70 60 63 40 40 38 33 32 34 35 40 39 42 52 52 56 54 49 46 44 40 36 30 25 23 21 19 18 16 15 13 8 11 17 23 26 19 19 20
71 72 69 66 64 59 56 57 38 40 43 39 37 39 40 41 45 49 54 55 53 51 49 46 41 37 31 25 22 19 17 16 15 19 13 7 8 15 21 15 15 14 20
72 75 71 64 60 59 50 56 45 38 40 40 41 42 46 53 55 53 57 53 50 50 49 47 42 34 31 26 23 18 16 13 16 19 16 9 7 11 14 6 8 11 17
75 69 68 60 56 55 53 49 54 36 40 41 43 42 43 42 51 53 53 52 50 47 48 43 38 33 30 24 20 20 16 18 18 21 20 14 8 8 7 1 4 8 12
69 62 61 55 51 48 50 45 47 46 37 44 46 48 47 49 56 50 50 51 49 49 45 38 34 33 29 27 23 20 18 19 18 18 23 18 10 6 6 7 6 7 7
66 62 60 55 48 48 44 44 40 46 40 43 49 53 51 53 57 55 53 51 52 51 44 41 37 37 36 30 26 25 21 19 19 19 20 18 12 9 11 12 8 5 4
62 60 57 59 52 50 47 42 42 37 43 39 46 56 60 65 65 57 56 53 50 46 48 44 47 46 39 34 31 28 23 21 22 18 19 18 14 14 14 13 9 5 2
61 60 57 59 60 49 51 49 39 41 35 39 35 49 56 51 49 51 49 52 57 53 50 50 50 46 41 37 34 28 27 23 20 18 21 19 17 16 14 14 10 7 2
57 58 58 54 54 50 49 49 51 39 36 37 33 43 52 52 50 60 62 59 51 53 53 52 52 49 42 40 36 33 30 21 19 20 22 20 18 19 18 17 14 7 2
52 52 53 54 52 50 47 49 47 42 43 38 36 36 48 54 60 61 62 54 58 60 57 59 54 49 44 41 39 37 30 21 18 19 20 19 18 21 22 21 16 8 4
52 52 51 52 51 49 47 45 45 43 41 38 39 33 37 49 60 58 65 66 72 71 65 61 53 50 45 42 40 39 30 24 20 18 19 19 20 23 24 22 18 10 7
50 48 49 50 50 48 46 45 45 40 38 37 42 40 33 40 58 65 70 75 69 72 67 60 54 52 48 44 44 41 33 27 21 19 20 21 24 25 24 22 18 14 9
49 46 43 44 44 43 45 44 43 42 38 39 43 40 39 41 57 72 81 82 78 75 70 64 58 57 52 49 46 41 35 29 24 22 21 21 24 24 24 23 17 15 12
45 43 40 41 43 41 41 40 40 41 35 36 40 39 38 38 46 62 80 87 82 78 67 58 57 55 53 51 45 41 38 33 28 24 22 24 24 24 26 24 20 15 15
38 37 35 33 35 36 37 36 35 33 31 30 33 33 35 38 45 55 74 86 77 75 64 59 56 57 54 49 44 41 38 34 28 25 22 21 24 23 23 23 19 16 15
32 30 30 29 27 28 30 31 30 27 24 22 26 25 31 27 37 51 64 78 72 69 62 63 58 54 51 48 46 42 39 35 31 27 24 22 23 23 21 19 19 16 15
28 26 25 24 23 23 22 24 26 23 18 10 13 22 24 33 39 47 52 59 70 67 64 61 54 53 51 47 44 41 39 36 33 29 25 23 22 23 21 18 17 16 12
28 25 22 20 19 19 19 20 23 23 21 14 2 9 17 28 37 46 49 50 60 68 65 62 57 52 51 48 44 41 39 36 34 32 28 26 24 22 22 20 18 17 14
Wind_Direction_500mb
357 344 341 342 316 284 281 277 267 267 262 259 255 238 231 227 227 220 217 222 218 221 222 222 224 224 223 220 217 219 222 225 222 236 258 282 301 310 315 317 317 319 321
356 355 340 336 340 312 288 286 278 263 262 253 248 244 231 226 218 215 207 214 211 221 219 218 219 219 217 214 214 216 222 229 234 239 262 297 315 319 324 324 329 331 330
351 353 351 338 332 337 310 288 279 269 258 249 243 243 233 223 216 210 208 216 217 221 220 216 218 215 215 213 210 212 215 224 228 244 276 310 319 320 323 330 335 336 332
346 348 353 344 332 328 330 305 284 277 263 255 248 240 228 215 213 207 197 214 207 222 218 215 212 213 216 212 209 212 212 217 224 241 299 327 328 336 333 336 336 343 335
346 343 346 351 334 328 323 324 304 284 269 258 245 233 217 211 206 197 198 206 210 216 210 211 206 207 211 208 209 212 213 218 228 243 291 323 339 337 342 342 339 342 342
340 341 342 346 346 327 325 319 317 303 276 255 239 222 207 205 203 196 195 206 210 206 207 208 205 206 203 207 206 211 216 222 230 243 279 316 338 340 343 341 341 344 354
333 337 339 343 346 336 320 319 306 296 271 245 228 211 202 199 194 196 194 201 211 205 203 206 204 201 202 200 199 207 214 222 231 243 271 295 336 344 337 341 342 346 349
329 332 335 339 339 344 326 313 302 282 261 233 220 207 202 198 198 208 202 206 202 201 202 201 202 205 202 194 194 203 212 218 220 228 254 289 331 338 337 340 342 354 358
324 326 330 334 334 338 340 313 298 283 258 238 225 215 208 201 203 208 203 202 199 198 198 199 200 200 199 192 194 203 208 210 219 220 242 279 319 327 336 341 346 1 11
319 321 323 325 330 328 333 331 293 284 267 256 233 222 215 206 205 208 204 203 199 198 198 199 199 200 196 195 199 204 214 218 222 226 230 242 302 320 334 347 360 20 23
315 314 317 318 323 325 319 331 318 282 275 255 244 232 216 206 201 205 208 204 204 204 204 203 201 198 198 196 199 202 218 219 226 222 230 228 273 313 333 8 20 29 37
310 311 311 314 314 321 319 319 328 297 268 259 241 229 218 212 210 212 207 205 207 211 212 207 205 201 202 204 204 206 213 223 217 216 226 223 228 303 318 115 90 49 41
314 315 312 312 310 316 318 309 314 320 279 254 242 228 215 218 217 212 214 208 210 212 212 211 208 208 210 213 215 215 223 228 217 208 224 224 223 252 247 183 139 77 49
312 316 314 315 311 309 313 314 300 311 305 268 248 238 220 223 220 215 216 212 211 211 204 204 210 216 218 217 222 222 224 227 215 208 216 221 217 236 222 189 159 120 37
313 315 315 313 313 307 306 309 303 288 303 286 260 243 232 227 221 218 216 211 210 211 212 209 214 216 218 217 220 221 220 228 210 210 207 210 215 226 216 190 176 176 55
315 317 318 313 311 309 305 303 300 292 284 294 271 255 241 238 232 222 219 209 219 219 215 216 219 219 220 217 219 221 223 218 214 209 207 197 215 213 205 185 173 197 105
315 318 319 317 313 311 306 307 307 300 285 284 272 253 245 230 214 216 208 211 219 218 218 224 223 222 220 216 214 216 223 212 208 206 201 199 205 199 189 182 177 175 82
319 320 317 319 312 309 307 305 304 301 288 278 282 258 239 229 213 223 206 214 216 220 221 223 222 222 220 213 209 214 213 202 203 207 196 192 206 190 189 181 169 164 84
314 319 321 318 313 310 308 307 305 297 284 274 275 271 243 233 219 222 206 213 213 215 217 217 216 219 216 210 207 212 202 194 195 196 192 192 196 191 186 187 168 145 109
309 312 313 317 316 312 311 311 309 301 285 275 268 266 258 236 226 208 208 209 217 219 219 216 212 214 210 206 204 202 197 190 185 181 186 188 182 188 185 186 179 137 122
308 311 311 311 314 315 312 315 314 308 282 274 267 265 259 248 233 229 224 209 215 217 217 214 210 210 207 204 203 199 194 191 183 178 177 177 179 182 185 191 186 138 129
307 310 312 313 316 319 318 317 317 312 290 272 268 261 257 252 244 231 225 212 211 214 215 211 209 208 207 205 201 199 197 196 185 177 178 168 175 184 188 191 187 161 139
310 312 313 314 316 320 319 319 320 318 298 262 265 261 255 250 243 232 221 211 209 210 207 206 206 205 205 201 199 199 201 198 189 183 175 172 169 182 192 192 194 171 142
318 318 317 318 323 327 328 330 333 329 315 272 253 247 254 252 239 226 219 208 206 210 204 205 203 204 205 205 204 202 200 202 196 188 181 175 178 176 182 195 202 192 153
337 330 325 324 330 339 347 349 355 355 340 308 245 234 233 229 225 220 220 217 204 197 209 204 200 200 200 201 204 205 204 203 200 196 189 179 181 182 177 190 209 210 173
358 349 338 334 336 342 356 8 17 23 24 25 24 190 190 199 199 202 207 212 203 194 199 196 195 199 198 200 202 206 211 209 207 202 196 189 186 193 188 187 202 216 202
Wind_Speed_850mb
86 74 66 57 46 40 38 55 67 72 78 81 84 98 103 100 86 87 81 74 62 58 51 47 46 43 39 36 32 31 30 27 22 19 17 18 19 21 22 26 29 30 30
84 84 70 60 55 46 36 41 57 70 74 77 80 90 103 100 94 79 73 61 55 53 53 50 48 43 39 35 32 29 25 23 18 13 11 13 16 20 25 30 32 30 31
87 86 77 62 56 50 47 41 46 60 73 79 80 86 90 95 88 84 66 62 55 56 52 49 45 41 39 34 30 27 23 19 14 9 9 12 16 18 21 26 28 31 35
78 85 83 66 58 52 46 45 41 50 61 71 73 78 83 88 85 71 59 63 51 49 52 48 42 38 35 31 28 26 22 17 12 8 8 11 16 19 26 32 33 35 42
80 77 81 76 58 54 49 42 39 40 51 58 66 69 78 80 75 72 70 60 59 61 50 48 43 39 36 32 28 24 20 18 15 7 7 10 13 19 27 35 41 45 45
77 76 75 74 68 53 51 42 37 36 39 53 60 66 70 71 70 65 62 61 60 53 51 49 42 40 32 28 24 23 23 20 15 11 9 10 12 19 26 34 43 48 36
72 73 74 72 69 59 47 46 36 31 26 39 49 60 69 64 55 57 59 57 57 54 51 47 42 37 34 29 25 23 22 21 19 13 9 11 11 17 27 33 38 31 30
70 68 72 74 67 66 46 42 41 28 28 28 41 46 50 54 52 48 53 58 56 52 48 42 39 36 33 28 25 22 19 20 19 14 12 8 12 16 23 33 31 25 26
71 70 68 71 70 60 63 40 40 38 33 32 34 35 40 39 42 52 52 56 54 49 46 44 40 36 30 25 23 21 19 18 16 15 13 8 11 17 23 26 19 19 20
71 72 69 66 64 59 56 57 38 40 43 39 37 39 40 41 45 49 54 55 53 51 49 46 41 37 31 25 22 19 17 16 15 19 13 7 8 15 21 15 15 14 20
72 75 71 64 60 59 50 56 45 38 40 40 41 42 46 53 55 53 57 53 50 50 49 47 42 34 31 26 23 18 16 13 16 19 16 9 7 11 14 6 8 11 17
75 69 68 60 56 55 53 49 54 36 40 41 43 42 43 42 51 53 53 52 50 47 48 43 38 33 30 24 20 20 16 18 18 21 20 14 8 8 7 1 4 8 12
69 62 61 55 51 48 50 45 47 46 37 44 46 48 47 49 56 50 50 51 49 49 45 38 34 33 29 27 23 20 18 19 18 18 23 18 10 6 6 7 6 7 7
66 62 60 55 48 48 44 44 40 46 40 43 49 53 51 53 57 55 53 51 52 51 44 41 37 37 36 30 26 25 21 19 19 19 20 18 12 9 11 12 8 5 4
62 60 57 59 52 50 47 42 42 37 43 39 46 56 60 65 65 57 56 53 50 46 48 44 47 46 39 34 31 28 23 21 22 18 19 18 14 14 14 13 9 5 2
61 60 57 59 60 49 51 49 39 41 35 39 35 49 56 51 49 51 49 52 57 53 50 50 50 46 41 37 34 28 27 23 20 18 21 19 17 16 14 14 10 7 2
57 58 58 54 54 50 49 49 51 39 36 37 33 43 52 52 50 60 62 59 51 53 53 52 52 49 42 40 36 33 30 21 19 20 22 20 18 19 18 17 14 7 2
52 52 53 54 52 50 47 49 47 42 43 38 36 36 48 54 60 61 62 54 58 60 57 59 54 49 44 41 39 37 30 21 18 19 20 19 18 21 22 21 16 8 4
52 52 51 52 51 49 47 45 45 43 41 38 39 33 37 49 60 58 65 66 72 71 65 61 53 50 45 42 40 39 30 24 20 18 19 19 20 23 24 22 18 10 7
50 48 49 50 50 48 46 45 45 40 38 37 42 40 33 40 58 65 70 75 69 72 67 60 54 52 48 44 44 41 33 27 21 19 20 21 24 25 24 22 18 14 9
49 46 43 44 44 43 45 44 43 42 38 39 43 40 39 41 57 72 81 82 78 75 70 64 58 57 52 49 46 41 35 29 24 22 21 21 24 24 24 23 17 15 12
45 43 40 41 43 41 41 40 40 41 35 36 40 39 38 38 46 62 80 87 82 78 67 58 57 55 53 51 45 41 38 33 28 24 22 24 24 24 26 24 20 15 15
38 37 35 33 35 36 37 36 35 33 31 30 33 33 35 38 45 55 74 86 77 75 64 59 56 57 54 49 44 41 38 34 28 25 22 21 24 23 23 23 19 16 15
32 30 30 29 27 28 30 31 30 27 24 22 26 25 31 27 37 51 64 78 72 69 62 63 58 54 51 48 46 42 39 35 31 27 24 22 23 23 21 19 19 16 15
28 26 25 24 23 23 22 24 26 23 18 10 13 22 24 33 39 47 52 59 70 67 64 61 54 53 51 47 44 41 39 36 33 29 25 23 22 23 21 18 17 16 12
28 25 22 20 19 19 19 20 23 23 21 14 2 9 17 28 37 46 49 50 60 68 65 62 57 52 51 48 44 41 39 36 34 32 28 26 24 22 22 20 18 17 14
Wind_Direction_850mb
357 344 341 342 316 284 281 277 267 267 262 259 255 238 231 227 227 220 217 222 218 221 222 222 224 224 223 220 217 219 222 225 222 236 258 282 301 310 315 317 317 319 321
356 355 340 336 340 312 288 286 278 263 262 253 248 244 231 226 218 215 207 214 211 221 219 218 219 219 217 214 214 216 222 229 234 239 262 297 315 319 324 324 329 331 330
351 353 351 338 332 337 310 288 279 269 258 249 243 243 233 223 216 210 208 216 217 221 220 216 218 215 215 213 210 212 215 224 228 244 276 310 319 320 323 330 335 336 332
346 348 353 344 332 328 330 305 284 277 263 255 248 240 228 215 213 207 197 214 207 222 218 215 212 213 216 212 209 212 212 217 224 241 299 327 328 336 333 336 336 343 335
346 343 346 351 334 328 323 324 304 284 269 258 245 233 217 211 206 197 198 206 210 216 210 211 206 207 211 208 209 212 213 218 228 243 291 323 339 337 342 342 339 342 342
340 341 342 346 346 327 325 319 317 303 276 255 239 222 207 205 203 196 195 206 210 206 207 208 205 206 203 207 206 211 216 222 230 243 279 316 338 340 343 341 341 344 354
333 337 339 343 346 336 320 319 306 296 271 245 228 211 202 199 194 196 194 201 211 205 203 206 204 201 202 200 199 207 214 222 231 243 271 295 336 344 337 341 342 346 349
329 332 335 339 339 344 326 313 302 282 261 233 220 207 202 198 198 208 202 206 202 201 202 201 202 205 202 194 194 203 212 218 220 228 254 289 331 338 337 340 342 354 358
324 326 330 334 334 338 340 313 298 283 258 238 225 215 208 201 203 208 203 202 199 198 198 199 200 200 199 192 194 203 208 210 219 220 242 279 319 327 336 341 346 1 11
319 321 323 325 330 328 333 331 293 284 267 256 233 222 215 206 205 208 204 203 199 198 198 199 199 200 196 195 199 204 214 218 222 226 230 242 302 320 334 347 360 20 23
315 314 317 318 323 325 319 331 318 282 275 255 244 232 216 206 201 205 208 204 204 204 204 203 201 198 198 196 199 202 218 219 226 222 230 228 273 313 333 8 20 29 37
310 311 311 314 314 321 319 319 328 297 268 259 241 229 218 212 210 212 207 205 207 211 212 207 205 201 202 204 204 206 213 223 217 216 226 223 228 303 318 115 90 49 41
314 315 312 312 310 316 318 309 314 320 279 254 242 228 215 218 217 212 214 208 210 212 212 211 208 208 210 213 215 215 223 228 217 208 224 224 223 252 247 183 139 77 49
312 316 314 315 311 309 313 314 300 311 305 268 248 238 220 223 220 215 216 212 211 211 204 204 210 216 218 217 222 222 224 227 215 208 216 221 217 236 222 189 159 120 37
313 315 315 313 313 307 306 309 303 288 303 286 260 243 232 227 221 218 216 211 210 211 212 209 214 216 218 217 220 221 220 228 210 210 207 210 215 226 216 190 176 176 55
315 317 318 313 311 309 305 303 300 292 284 294 271 255 241 238 232 222 219 209 219 219 215 216 219 219 220 217 219 221 223 218 214 209 207 197 215 213 205 185 173 197 105
315 318 319 317 313 311 306 307 307 300 285 284 272 253 245 230 214 216 208 211 219 218 218 224 223 222 220 216 214 216 223 212 208 206 201 199 205 199 189 182 177 175 82
319 320 317 319 312 309 307 305 304 301 288 278 282 258 239 229 213 223 206 214 216 220 221 223 222 222 220 213 209 214 213 202 203 207 196 192 206 190 189 181 169 164 84
314 319 321 318 313 310 308 307 305 297 284 274 275 271 243 233 219 222 206 213 213 215 217 217 216 219 216 210 207 212 202 194 195 196 192 192 196 191 186 187 168 145 109
309 312 313 317 316 312 311 311 309 301 285 275 268 266 258 236 226 208 208 209 217 219 219 216 212 214 210 206 204 202 197 190 185 181 186 188 182 188 185 186 179 137 122
308 311 311 311 314 315 312 315 314 308 282 274 267 265 259 248 233 229 224 209 215 217 217 214 210 210 207 204 203 199 194 191 183 178 177 177 179 182 185 191 186 138 129
307 310 312 313 316 319 318 317 317 312 290 272 268 261 257 252 244 231 225 212 211 214 215 211 209 208 207 205 201 199 197 196 185 177 178 168 175 184 188 191 187 161 139
310 312 313 314 316 320 319 319 320 318 298 262 265 261 255 250 243 232 221 211 209 210 207 206 206 205 205 201 199 199 201 198 189 183 175 172 169 182 192 192 194 171 142
318 318 317 318 323 327 328 330 333 329 315 272 253 247 254 252 239 226 219 208 206 210 204 205 203 204 205 205 204 202 200 202 196 188 181 175 178 176 182 195 202 192 153
337 330 325 324 330 339 347 349 355 355 340 308 245 234 233 229 225 220 220 217 204 197 209 204 200 200 200 201 204 205 204 203 200 196 189 179 181 182 177 190 209 210 173
358 349 338 334 336 342 356 8 17 23 24 25 24 190 190 199 199 202 207 212 203 194 199 196 195 199 198 200 202 206 211 209 207 202 196 189 186 193 188 187 202 216 202